Location: Deuil
(48.9767°N, 2.3272°E)
Time: 05:17:07
(UTC+00:00)

Envisat - Visible Passes

Search period start: 30 September 2023 00:00
Search period end: 10 October 2023 00:00
Orbit: 763 x 764 km, 98.2° (Epoch: 29 September)

Date Brightness Start Highest point End Pass type
(mag) Time Alt. Az. Time Alt. Az. Time Alt. Az.
30 Sep 4.2 03:00:26 10° NNE 03:05:10 38° E 03:08:32 18° SSE visible
30 Sep 3.7 04:39:34 10° N 04:44:06 33° WNW 04:48:36 10° SW visible
01 Oct 5.3 02:24:02 10° NE 02:27:38 19° E 02:30:46 12° SE visible
01 Oct 2.9 04:02:02 10° N 04:07:05 66° WNW 04:10:56 17° SSW visible
02 Oct 3.4 03:24:49 10° NNE 03:29:53 62° ESE 03:33:10 22° S visible
02 Oct 4.2 05:04:36 10° N 05:08:27 22° WNW 05:12:17 10° WSW visible
03 Oct 4.6 02:47:59 10° NNE 02:52:28 30° E 02:55:24 18° SE visible
03 Oct 3.4 04:26:48 10° N 04:31:34 41° WNW 04:35:33 14° SW visible
04 Oct 5.6 02:11:58 10° NE 02:14:51 15° E 02:17:38 10° ESE visible
04 Oct 2.9 03:49:23 10° NNE 03:54:29 83° WNW 03:57:47 22° SSW visible
05 Oct 3.8 03:12:16 10° NNE 03:17:13 49° E 03:20:01 24° SSE visible
05 Oct 4.0 04:51:44 10° N 04:55:58 27° WNW 05:00:10 10° WSW visible
06 Oct 5.0 02:35:38 10° NE 02:39:44 24° E 02:42:14 17° SE visible
06 Oct 3.1 04:14:05 10° N 04:19:01 52° WNW 04:22:24 20° SW visible
07 Oct 5.8 02:00:19 10° ENE 02:02:02 12° E 02:03:45 10° ESE visible
07 Oct 3.0 03:36:45 10° NNE 03:41:52 79° ESE 03:44:37 28° S visible
07 Oct 4.5 05:16:53 10° NNW 05:20:16 18° WNW 05:23:38 10° W visible
08 Oct 4.2 02:59:46 10° NNE 03:04:32 38° E 03:06:50 25° SSE visible
08 Oct 3.7 04:38:55 10° N 04:43:26 33° WNW 04:47:00 15° WSW visible
09 Oct 5.3 02:23:22 10° NE 02:26:59 19° E 02:29:03 15° ESE visible
09 Oct 2.9 04:01:23 10° N 04:06:26 66° WNW 04:09:13 26° SW visible
